Погода в Тевризе

Погода в Тевризе : погода сейчас, прогноз погоды и архив. Всё, что Вы хотите узнать о погоде в Тевризе!

Хотите узнать прогноз погоды в Тевризе? Тогда Вам сюда: Погода в Тевризе

Поиск расширенной информации на нашем сайте:

Другие новости

Новости СМИ2

Главная страница сайта

Новости сайта

02.10.2013

Напоминаем, что на нашем новом сайте вы можете получить высокодетализированные прогнозы погоды по пунктам России, СНГ и мира (включающие важные для авиации метеовеличины, такие как направление и скорость ветра, видимость, явления погоды, количество и форма облачности, нижняя и верхняя граница облачности), а также ознакомиться с разнообразными материалами по авиационной метеорологии и подборкой полезных ссылок на эту тему.

Сайт Метеоцентр.Азия посвящён разработке технологий оптимизации авиаметеорологического обслуживания, включая проектирование и перспективное создание нескольких автоматизированных авиаметеорологических систем:
- система выпуска высокодетальных прогностических карт явлений погоды для нижнего воздушного пространства по России и ближнему зарубежью;
- система верификации прогнозов TAF (выпускаемых синоптиками официальных АМСГ РФ и ближнего зарубежья) и AUTOTAF (выпускаемых сайтом Метеоцентр.Азия) - выявление ошибок, онлайн-сопоставление с фактической погодой METAR, автоматическое внесение коррективов в прогнозы при резком отклонении фактической погоды от прогноза, подсчёт оправдываемости прогнозов по элементам и в целом;
- система обработки, анализа и отображения авиаметеорологической информации для применения провайдерами метеорологической информации.

Рекомендуем: Супер прогрессивный стабилизатор переменного напряжения

Погода в Тевризе - сегодня

Время (UTC), дата Ветер
(°,м/с) 
Видим.   Явления Облачность Т
(°С)
Тd
(°С)
f(%) Тe
(°С)
Pmin
(гПа)
dP
(гПа)
Po
(мм)
O2
(г/м3)
Тmin Tmax R s Состояние
почвы
09 26.04.17 060 (СВ) 9000 м  дымка  9/0 средняя 
[Ac cast]
+15.4 +11.3 77 +19  1014.5  -0.7  755  286           
12 26.04.17 090 (В) н/о    н/о 
+16.9 +9.9 63 +18  1013.2  -1.3  754  284           
15 26.04.17 090 (В) 20000 м    10/0 средняя 
[Ac As]
+13.8 +10.1 78 +15  1011.1  -2.1  752  287    +17.2       
18 26.04.17 030 (СВ) 4000 м  в посл. час гроза{ливн. осадки}  10/5 600 м кучево-дожд., средняя 
[Cb cap|As op]
+10.9 +10.9 100 +13  1010  -1.1  752  289           
21 26.04.17 330 (СЗ) 4000 м  слаб. ливневой дождь  10/6 600 м кучево-дожд., средняя 
[Cb cap|As op]
+10 +10 100 +12  1008.6  -1.4  751  290           
00 27.04.17 300 (СЗ) 6000 м  слаб. ливневой дождь  10/10 330 м кучево-дожд. 
[Cb cap]
+10.1 +10.1 100 +11  1009.3  0.8  751  290           
03 27.04.17 360 (С) 6000 м  слаб. ливневой дождь  10/10 400 м кучево-дожд. 
[Cb cap]
+7 +7 100 +6  1011.9  2.4  753  295  +7      влажная 
06 27.04.17 350 (С) 5{11}  н/о    н/о 
+6 +5.9 99 +4  1015.7  3.8  756  297  +6         
09 27.04.17 010 (С) 20000 м  слаб. ливневой дождь  10/4 300 м средняя 
[Frnb|As op]
+6.5 +4.2 85 +5  1019.3  3.5  758  298           
12 27.04.17 360 (С) н/о    н/о 
+8.7 +2.3 64 +8  1021.2  1.9  760  296           
15 27.04.17 010 (С) 20000 м    10/5 600 м кучево-дожд., средняя 
[Cb cap|As op]
+6.3 +1.8 73 +6  1023.4  2.1  761  300    +8.9     
18 27.04.17 330 (СЗ) 10 км    3/0 средняя 
[Ac lent]
+0 +0 100 +1  1024.9  1.3  762  307           
21 27.04.17 тихо ()   10 км    ясно 
-2 -2 100 -2  1025.2  0.2  763  310           
00 28.04.17 140 (ЮВ) 20000 м    ясно 
-3 -3 100 -3  1025  -0.2  762  311           
03 28.04.17 190 (Ю) 20000 м    ясно 
+5.8 +1.8 75 +5  1024.1  -0.6  762  300  -3.6        влажная 
06 28.04.17 240 (ЮЗ) н/о    н/о 
+11.2 +1.4 51 +10  1022.5  -1.5  761  294           
09 28.04.17 210 (ЮЗ) 20000 м    9/0 верхняя 
[Ci fib]
+15.4 +0.7 37 +15  1018.7  -3.6  758  289           
12 28.04.17 240 (ЮЗ) 6{11}  н/о    н/о 
+17.6 +2.8 37 +17  1016.2  -2.5  756  286           
15 28.04.17 210 (ЮЗ) 4{11}  20000 м    3/0 верхняя 
[Ci fib]
+15.1 +4.5 49 +15  1014.8  -1.4  755  288    +17.7       
18 28.04.17 230 (ЮЗ) 10 км    1/0 средняя 
[Ac trans]
+14.2 +5.1 54 +13  1013.4  -1.4  754  288           
21 28.04.17 330 (СЗ) 3{14}  10 км    9/0 средняя 
[Ac und]
+11.1 +6.3 72 +11  1014  0.5  755  291           
00 29.04.17 300 (СЗ) 20000 м    10/3 600 м кучево-дожд., средняя 
[Cb cap|Ac lent]
+8.4 +6.1 85 +8  1014.9  0.9  755  294           
03 29.04.17 290 (З) 20000 м  {ливн. осадки}  9/1 600 м кучево-дожд., средняя 
[Cb cap|Ac lent]
+8.8 +3 67 +8  1016.8  1.9  757  295  +8.2    0.0    влажная 
06 29.04.17 310 (СЗ) 6-10{11}  н/о    н/о 
+11.6 -1.5 40 +10  1018.1  1.4  758  293           
09 29.04.17 310 (СЗ) 6{14}  20000 м  {ливн. осадки}  8/8 900 м кучево-дожд. 
[Cb cap]
+12.3 -4.6 30 +11  1018.8  0.7  758  293           
Время (UTC), дата Ветер
(°,м/с) 
Видим.   Явления Облачность Т
(°С)
Тd
(°С)
f(%) Тe
(°С)
Pmin
(гПа)
dP
(гПа)
Po
(мм)
O2
(г/м3)
Тmin Tmax R s Состояние
почвы

Для получения пояснительной информации подведите курсор к названию столбца.

ПОГОДА в Тевризе - архив

Всё, что Вы хотите узнать о погоде в Тевризе - удобно и подробно!

Выберите нужную дату (начиная с 1 января 2015* года) и нажмите кнопку "Найти".
Будут отображены архивные сводки погоды по пункту Тевриз, начиная с указанной даты.


Отображать данные в формате CSV (для использования в таблицах Excel)


Внимание! Наш архив погоды предназначен исключительно для личного некоммерческого использования в познавательных целях. Если Вам необходимы официальные справки о состоянии погоды (для производственных, юридических, коммерческих и т.п. целей), обращайтесь в органы Росгидромета.

*Примечание: данная дата относится к архиву по метеостанциям СССР (Россия, СНГ, Балтия).
Архив по метеостанциям Зарубежной Европы и Азии (кроме Китая) хранится 10 дней, по другим регионам земного шара (Китай, Африка, Америка, Австралия, Океания) - 1 день.

Тевриз - район местоположения метеостанции


Название, широта, долгота, высота метеостанции:
Тевриз 57.5°ш. 72.4°д. 67 м над ур. моря [Российская Федерация]

Дополнительная информация

В oтличие oт бoльшинства пoгoдных сайтoв мы публикуем пoдрoбную метеoинфoрмацию в детальнoм прoфессиoнальнoм фoрмате.

Характеристики температуры и влажнoсти вoздуха измеряются на высoте 2 м в тени вдали oт зданий и деревьев.
Скoрoсть ветра измеряется на высoте 10 м (на урoвне рoста челoвека скoрoсть ветра ниже в 1.5-2 раза). Если метеoстанция нахoдится в гoрoде или в лесу, тo скoрoсть ветра занижена на 2-4 м/с пo сравнению с oткрытым местoм. Скoрoсть ветра над акватoриями крупных рек и oзёр, а также на вершинах хoлмoв на 2-5 м/с выше, чем в oбычных услoвиях.
Атмoсфернoе давление в разных тoчках местнoсти мoжет значительнo oтличаться oт давления на метеoстанции, в зависимoсти oт услoвий рельефа (при пoдъёме на 10 м давление пoнижается примернo на 1 мм рт.ст.).